WHDW 08-05

operational
NORAD ID: 65168 Int'l Des: 2025-174 Owner: ZXW Country: CN
LEOCIRCULARPOLARONEWEB_TYPE

Über WHDW 08-05

Beschreibung wird geladen...

Live-Position

3D-Globus wird geladen...

Nächste Überflüge

Höhenverlauf

Altitude vs Time

uPlot chart will show altitude changes over time

Zweizeiliger Elementsatz

1 65168U 25174E 26071.21716734 .00000060 00000-0 10522-3 0 9991
2 65168 86.4857 284.6843 0001285 98.2360 261.8920 13.24421855 27951
Epoch: 12. März 2026 • Age: 14 hours

Aktueller Status

Höhe 1170.0 km
Geschwindigkeit 7.27 km/s
Subsatellitenpunkt 18.00°N, 100.07°W
Startdatum 13. Aug. 2025
Alter 0.5 years
Typ other

Technische Details

Klassifizierung Payload
Masse 800.00 kg
Trockenmasse 800.00 kg
Gesamtmasse 800.00 kg
Länge 3.00 m
Durchmesser 1.00 m
Spannweite 10.00 m
Form Box + 2 Pan
Hersteller CAST
Bus-Typ Xingwang CL
Phasenstatus In Orbit
Besitzer/Staat ZXW/CN

Große Konstellationen

Loading constellations...